Location: *
(37.5724°S, 58.0067°E)
Time: 09:39:38
(UTC+00:00)

IRAS Rocket - Pass Details

Date: 26 September 2020
Orbit: 847 x 878 km, 100.1° (Epoch: 29 October)

Event Time Altitude Azimuth Distance (km) Brightness Sun altitude
Rises 23:21:23 0° 167° (SSE) 3,490 8.0 -29.0°
Reaches altitude 10° 23:23:47 10° 167° (SSE) 2,550 7.1 -28.6°
Maximum altitude 23:29:28 82° 253° (WSW) 898 4.1 -27.6°
Enters shadow 23:29:32 81° 265° (W) 898 4.1 -27.5°
